Time,TemperatureF,DewpointF,PressureIn,WindDirection,WindDirectionDegrees,WindSpeedMPH,WindSpeedGustMPH,Humidity,HourlyPrecipIn,Conditions,Clouds,dailyrainin,SoftwareType,DateUTC
2013-03-11 00:00:00,28.3,24.9,29.97,SW,229,5.0,5.0,87,0.00,,---,0.00,VWS V14.01,2013-03-11 05:00:00,
2013-03-11 00:05:00,28.3,24.9,29.96,NW,306,11.0,11.0,87,0.00,,---,0.00,VWS V14.01,2013-03-11 05:05:00,
2013-03-11 00:10:00,28.4,25.0,29.97,WNW,286,6.0,6.0,87,0.00,,---,0.00,VWS V14.01,2013-03-11 05:10:00,
2013-03-11 00:15:00,28.3,24.7,29.97,West,275,1.0,10.0,86,0.00,,---,0.00,VWS V14.01,2013-03-11 05:15:00,
2013-03-11 00:20:00,28.4,25.0,29.97,NW,313,5.0,7.0,87,0.00,,---,0.00,VWS V14.01,2013-03-11 05:20:00,
2013-03-11 00:25:00,28.4,24.8,29.97,NNW,341,5.0,8.0,86,0.00,,---,0.00,VWS V14.01,2013-03-11 05:25:00,
2013-03-11 00:30:00,28.4,24.8,29.97,SSE,161,1.0,4.0,86,0.00,,---,0.00,VWS V14.01,2013-03-11 05:30:00,
2013-03-11 00:35:00,28.5,24.9,29.97,WNW,299,5.0,12.0,86,0.00,,---,0.00,VWS V14.01,2013-03-11 05:35:00,
2013-03-11 00:40:00,28.5,24.9,29.97,West,279,5.0,5.0,86,0.00,,---,0.00,VWS V14.01,2013-03-11 05:40:00,
2013-03-11 00:45:00,28.5,24.9,29.96,West,264,3.0,8.0,86,0.00,,---,0.00,VWS V14.01,2013-03-11 05:45:00,
2013-03-11 00:50:00,28.5,24.9,29.96,SW,219,6.0,12.0,86,0.00,,---,0.00,VWS V14.01,2013-03-11 05:50:00,
2013-03-11 00:55:00,28.5,24.6,29.96,WNW,286,2.0,13.0,85,0.00,,---,0.00,VWS V14.01,2013-03-11 05:55:00,
2013-03-11 01:00:00,28.5,24.6,29.96,NW,320,10.0,11.0,85,0.00,,---,0.00,VWS V14.01,2013-03-11 06:00:00,
2013-03-11 01:05:00,28.5,24.3,29.95,WNW,287,5.0,11.0,84,0.00,,---,0.00,VWS V14.01,2013-03-11 06:05:00,
2013-03-11 01:10:00,28.5,24.3,29.96,SW,215,3.0,11.0,84,0.00,,---,0.00,VWS V14.01,2013-03-11 06:10:00,
2013-03-11 01:11:00,28.5,24.3,29.95,West,277,4.0,9.0,84,0.00,,---,0.00,VWS V14.01,2013-03-11 06:11:00,
2013-03-11 01:16:00,28.5,24.3,29.95,WSW,240,0.0,11.0,84,0.00,,---,0.00,VWS V14.01,2013-03-11 06:16:00,
2013-03-11 01:20:00,28.5,24.3,29.96,WNW,291,7.0,12.0,84,0.00,,---,0.00,VWS V14.01,2013-03-11 06:20:00,
2013-03-11 01:21:00,28.6,24.4,29.96,WSW,240,2.0,9.0,84,0.00,,---,0.00,VWS V14.01,2013-03-11 06:21:00,
2013-03-11 01:26:00,28.6,24.4,29.96,West,259,1.0,9.0,84,0.00,,---,0.00,VWS V14.01,2013-03-11 06:26:00,
2013-03-11 01:30:00,28.6,24.4,29.96,West,268,7.0,9.0,84,0.00,,---,0.00,VWS V14.01,2013-03-11 06:30:00,
2013-03-11 01:31:00,28.5,24.0,29.95,West,274,5.0,12.0,83,0.00,,---,0.00,VWS V14.01,2013-03-11 06:31:00,
2013-03-11 01:36:00,28.4,23.9,29.95,West,262,1.0,12.0,83,0.00,,---,0.00,VWS V14.01,2013-03-11 06:36:00,
2013-03-11 01:40:00,28.3,23.5,29.95,West,269,3.0,12.0,82,0.00,,---,0.00,VWS V14.01,2013-03-11 06:40:00,
2013-03-11 01:41:00,28.3,23.5,29.96,WSW,252,5.0,8.0,82,0.00,,---,0.00,VWS V14.01,2013-03-11 06:41:00,
2013-03-11 01:46:00,28.3,23.8,29.96,NW,316,4.0,10.0,83,0.00,,---,0.00,VWS V14.01,2013-03-11 06:46:00,
2013-03-11 01:50:00,28.2,23.4,29.96,West,261,1.0,10.0,82,0.00,,---,0.00,VWS V14.01,2013-03-11 06:50:00,
2013-03-11 01:51:00,28.2,23.4,29.96,WSW,244,3.0,5.0,82,0.00,,---,0.00,VWS V14.01,2013-03-11 06:51:00,
2013-03-11 01:56:00,28.1,23.3,29.96,West,275,4.0,15.0,82,0.00,,---,0.00,VWS V14.01,2013-03-11 06:56:00,
2013-03-11 02:00:00,28.1,23.3,29.96,NNW,342,6.0,15.0,82,0.00,,---,0.00,VWS V14.01,2013-03-11 07:00:00,
2013-03-11 02:01:00,28.1,23.3,29.96,West,274,15.0,15.0,82,0.00,,---,0.00,VWS V14.01,2013-03-11 07:01:00,
2013-03-11 02:06:00,28.0,23.2,29.96,WSW,257,3.0,15.0,82,0.00,,---,0.00,VWS V14.01,2013-03-11 07:06:00,
2013-03-11 02:10:00,28.0,22.9,29.96,NW,313,5.0,15.0,81,0.00,,---,0.00,VWS V14.01,2013-03-11 07:10:00,
2013-03-11 02:11:00,27.9,23.1,29.96,SE,135,2.0,10.0,82,0.00,,---,0.00,VWS V14.01,2013-03-11 07:11:00,
2013-03-11 02:16:00,27.9,23.1,29.97,West,276,2.0,11.0,82,0.00,,---,0.00,VWS V14.01,2013-03-11 07:16:00,
2013-03-11 02:20:00,27.9,22.8,29.97,West,280,5.0,11.0,81,0.00,,---,0.00,VWS V14.01,2013-03-11 07:20:00,
2013-03-11 02:21:00,27.8,22.7,29.97,WSW,246,4.0,8.0,81,0.00,,---,0.00,VWS V14.01,2013-03-11 07:21:00,
2013-03-11 02:26:00,27.8,23.0,29.97,SW,224,1.0,8.0,82,0.00,,---,0.00,VWS V14.01,2013-03-11 07:26:00,
2013-03-11 02:30:00,27.8,23.0,29.97,SW,234,3.0,8.0,82,0.00,,---,0.00,VWS V14.01,2013-03-11 07:30:00,
2013-03-11 02:32:00,27.8,23.0,29.96,West,265,5.0,13.0,82,0.00,,---,0.00,VWS V14.01,2013-03-11 07:32:00,
2013-03-11 02:37:00,27.7,22.9,29.96,NE,51,0.0,13.0,82,0.00,,---,0.00,VWS V14.01,2013-03-11 07:37:00,
2013-03-11 02:40:00,27.7,22.9,29.96,NW,306,4.0,13.0,82,0.00,,---,0.00,VWS V14.01,2013-03-11 07:40:00,
2013-03-11 02:42:00,27.7,22.9,29.96,NW,308,4.0,7.0,82,0.00,,---,0.00,VWS V14.01,2013-03-11 07:42:00,
2013-03-11 02:47:00,27.6,22.5,29.96,West,263,3.0,12.0,81,0.00,,---,0.00,VWS V14.01,2013-03-11 07:47:00,
2013-03-11 02:50:00,27.6,22.8,29.96,WNW,292,4.0,12.0,82,0.00,,---,0.00,VWS V14.01,2013-03-11 07:50:00,
2013-03-11 02:52:00,27.6,22.8,29.96,SW,228,2.0,10.0,82,0.00,,---,0.00,VWS V14.01,2013-03-11 07:52:00,
2013-03-11 02:57:00,27.6,22.8,29.96,SW,231,4.0,10.0,82,0.00,,---,0.00,VWS V14.01,2013-03-11 07:57:00,
2013-03-11 03:00:00,27.6,22.8,29.96,SW,231,4.0,10.0,82,0.00,,---,0.00,VWS V14.01,2013-03-11 08:00:00,
2013-03-11 03:02:00,27.7,23.2,29.96,WSW,252,0.0,5.0,83,0.00,,---,0.00,VWS V14.01,2013-03-11 08:02:00,
2013-03-11 03:07:00,27.6,23.1,29.96,West,277,6.0,7.0,83,0.00,,---,0.00,VWS V14.01,2013-03-11 08:07:00,
2013-03-11 03:10:00,27.6,22.8,29.96,NNW,347,0.0,14.0,82,0.00,,---,0.00,VWS V14.01,2013-03-11 08:10:00,
2013-03-11 03:12:00,27.5,22.7,29.96,WNW,284,0.0,6.0,82,0.00,,---,0.00,VWS V14.01,2013-03-11 08:12:00,
2013-03-11 03:17:00,27.4,22.6,29.96,West,270,4.0,7.0,82,0.00,,---,0.00,VWS V14.01,2013-03-11 08:17:00,
2013-03-11 03:20:00,27.4,22.6,29.96,WSW,248,5.0,11.0,82,0.00,,---,0.00,VWS V14.01,2013-03-11 08:20:00,
2013-03-11 03:22:00,27.3,22.8,29.96,NNW,333,4.0,10.0,83,0.00,,---,0.00,VWS V14.01,2013-03-11 08:22:00,
2013-03-11 03:27:00,27.2,22.4,29.95,WNW,285,4.0,10.0,82,0.00,,---,0.00,VWS V14.01,2013-03-11 08:27:00,
2013-03-11 03:30:00,27.2,22.4,29.95,West,275,2.0,10.0,82,0.00,,---,0.00,VWS V14.01,2013-03-11 08:30:00,
2013-03-11 03:32:00,27.2,22.4,29.95,NW,305,1.0,8.0,82,0.00,,---,0.00,VWS V14.01,2013-03-11 08:32:00,
2013-03-11 03:37:00,27.1,22.6,29.95,WSW,256,5.0,12.0,83,0.00,,---,0.00,VWS V14.01,2013-03-11 08:37:00,
2013-03-11 03:40:00,27.1,22.6,29.95,ESE,117,6.0,12.0,83,0.00,,---,0.00,VWS V14.01,2013-03-11 08:40:00,
2013-03-11 03:42:00,27.1,22.6,29.95,WSW,242,4.0,11.0,83,0.00,,---,0.00,VWS V14.01,2013-03-11 08:42:00,
2013-03-11 03:47:00,27.0,22.5,29.95,WSW,246,6.0,12.0,83,0.00,,---,0.00,VWS V14.01,2013-03-11 08:47:00,
2013-03-11 03:50:00,27.0,22.5,29.95,NNW,343,6.0,12.0,83,0.00,,---,0.00,VWS V14.01,2013-03-11 08:50:00,
2013-03-11 03:52:00,26.9,22.4,29.95,WSW,256,5.0,11.0,83,0.00,,---,0.00,VWS V14.01,2013-03-11 08:52:00,
2013-03-11 03:57:00,26.9,22.4,29.94,NE,42,1.0,11.0,83,0.00,,---,0.00,VWS V14.01,2013-03-11 08:57:00,
2013-03-11 04:00:00,26.9,22.4,29.95,West,270,4.0,11.0,83,0.00,,---,0.00,VWS V14.01,2013-03-11 09:00:00,
2013-03-11 04:02:00,26.9,22.4,29.94,West,281,1.0,10.0,83,0.00,,---,0.00,VWS V14.01,2013-03-11 09:02:00,
2013-03-11 04:07:00,26.8,22.6,29.94,NW,315,2.0,10.0,84,0.00,,---,0.00,VWS V14.01,2013-03-11 09:07:00,
2013-03-11 04:10:00,26.7,22.5,29.94,WNW,303,5.0,10.0,84,0.00,,---,0.00,VWS V14.01,2013-03-11 09:10:00,
2013-03-11 04:12:00,26.7,22.5,29.94,NW,309,0.0,10.0,84,0.00,,---,0.00,VWS V14.01,2013-03-11 09:12:00,
2013-03-11 04:17:00,26.6,22.4,29.94,WSW,254,3.0,11.0,84,0.00,,---,0.00,VWS V14.01,2013-03-11 09:17:00,
2013-03-11 04:20:00,26.5,22.3,29.94,North,355,1.0,11.0,84,0.00,,---,0.00,VWS V14.01,2013-03-11 09:20:00,
2013-03-11 04:22:00,26.5,22.3,29.94,WNW,288,1.0,7.0,84,0.00,,---,0.00,VWS V14.01,2013-03-11 09:22:00,
2013-03-11 04:27:00,26.5,22.6,29.94,SW,225,2.0,8.0,85,0.00,,---,0.00,VWS V14.01,2013-03-11 09:27:00,
2013-03-11 04:30:00,26.5,22.6,29.94,WSW,245,4.0,8.0,85,0.00,,---,0.00,VWS V14.01,2013-03-11 09:30:00,
2013-03-11 04:32:00,26.5,22.3,29.94,WSW,250,5.0,8.0,84,0.00,,---,0.00,VWS V14.01,2013-03-11 09:32:00,
2013-03-11 04:37:00,26.4,22.2,29.94,WNW,299,1.0,11.0,84,0.00,,---,0.00,VWS V14.01,2013-03-11 09:37:00,
2013-03-11 04:40:00,26.4,22.2,29.94,WNW,300,2.0,11.0,84,0.00,,---,0.00,VWS V14.01,2013-03-11 09:40:00,
2013-03-11 04:42:00,26.3,22.1,29.94,West,261,1.0,12.0,84,0.00,,---,0.00,VWS V14.01,2013-03-11 09:42:00,
2013-03-11 04:47:00,26.3,22.4,29.94,NW,305,4.0,12.0,85,0.00,,---,0.00,VWS V14.01,2013-03-11 09:47:00,
2013-03-11 04:50:00,26.3,22.4,29.94,WSW,246,0.0,12.0,85,0.00,,---,0.00,VWS V14.01,2013-03-11 09:50:00,
2013-03-11 04:52:00,26.3,22.4,29.94,WSW,247,5.0,12.0,85,0.00,,---,0.00,VWS V14.01,2013-03-11 09:52:00,
2013-03-11 04:57:00,26.2,22.0,29.94,NW,311,4.0,12.0,84,0.00,,---,0.00,VWS V14.01,2013-03-11 09:57:00,
2013-03-11 05:00:00,26.3,22.1,29.94,NW,317,1.0,12.0,84,0.00,,---,0.00,VWS V14.01,2013-03-11 10:00:00,
2013-03-11 05:02:00,26.2,22.0,29.94,NE,35,3.0,10.0,84,0.00,,---,0.00,VWS V14.01,2013-03-11 10:02:00,
2013-03-11 05:07:00,26.2,22.0,29.95,North,360,2.0,10.0,84,0.00,,---,0.00,VWS V14.01,2013-03-11 10:07:00,
2013-03-11 05:10:00,26.1,21.9,29.95,WNW,292,2.0,10.0,84,0.00,,---,0.00,VWS V14.01,2013-03-11 10:10:00,
2013-03-11 05:12:00,26.2,22.3,29.95,WSW,250,2.0,10.0,85,0.00,,---,0.00,VWS V14.01,2013-03-11 10:12:00,
2013-03-11 05:17:00,26.2,22.3,29.95,WSW,246,4.0,10.0,85,0.00,,---,0.00,VWS V14.01,2013-03-11 10:17:00,
2013-03-11 05:20:00,26.2,22.3,29.95,West,267,1.0,10.0,85,0.00,,---,0.00,VWS V14.01,2013-03-11 10:20:00,
2013-03-11 05:22:00,26.2,22.3,29.95,WSW,251,2.0,8.0,85,0.00,,---,0.00,VWS V14.01,2013-03-11 10:22:00,
2013-03-11 05:27:00,26.1,21.9,29.95,WSW,240,2.0,9.0,84,0.00,,---,0.00,VWS V14.01,2013-03-11 10:27:00,
2013-03-11 05:30:00,26.1,21.9,29.95,West,262,4.0,9.0,84,0.00,,---,0.00,VWS V14.01,2013-03-11 10:30:00,
2013-03-11 05:32:00,26.1,22.2,29.95,West,268,1.0,4.0,85,0.00,,---,0.00,VWS V14.01,2013-03-11 10:32:00,
2013-03-11 05:38:00,26.1,22.2,29.95,West,265,4.0,6.0,85,0.00,,---,0.00,VWS V14.01,2013-03-11 10:38:00,
2013-03-11 05:40:00,26.1,22.2,29.95,West,269,3.0,6.0,85,0.00,,---,0.00,VWS V14.01,2013-03-11 10:40:00,
2013-03-11 05:43:00,26.1,22.2,29.95,WSW,252,0.0,7.0,85,0.00,,---,0.00,VWS V14.01,2013-03-11 10:43:00,
2013-03-11 05:48:00,26.1,22.2,29.95,NW,325,8.0,8.0,85,0.00,,---,0.00,VWS V14.01,2013-03-11 10:48:00,
2013-03-11 05:50:00,26.1,21.9,29.95,WSW,256,5.0,8.0,84,0.00,,---,0.00,VWS V14.01,2013-03-11 10:50:00,
2013-03-11 05:53:00,26.0,21.8,29.95,West,270,4.0,8.0,84,0.00,,---,0.00,VWS V14.01,2013-03-11 10:53:00,
2013-03-11 05:58:00,26.0,21.8,29.96,SSW,208,3.0,8.0,84,0.00,,---,0.00,VWS V14.01,2013-03-11 10:58:00,
2013-03-11 06:00:00,26.0,21.8,29.96,NW,306,1.0,8.0,84,0.00,,---,0.00,VWS V14.01,2013-03-11 11:00:00,
2013-03-11 06:03:00,26.0,21.8,29.96,WSW,244,3.0,9.0,84,0.00,,---,0.00,VWS V14.01,2013-03-11 11:03:00,
2013-03-11 06:08:00,26.0,21.8,29.96,West,260,0.0,9.0,84,0.00,,---,0.00,VWS V14.01,2013-03-11 11:08:00,
2013-03-11 06:10:00,26.0,21.8,29.96,West,260,0.0,9.0,84,0.00,,---,0.00,VWS V14.01,2013-03-11 11:10:00,
2013-03-11 06:13:00,26.0,22.1,29.97,SW,235,4.0,5.0,85,0.00,,---,0.00,VWS V14.01,2013-03-11 11:13:00,
2013-03-11 06:18:00,26.1,21.9,29.97,WNW,292,6.0,10.0,84,0.00,,---,0.00,VWS V14.01,2013-03-11 11:18:00,
2013-03-11 06:20:00,26.1,21.9,29.97,WNW,293,7.0,10.0,84,0.00,,---,0.00,VWS V14.01,2013-03-11 11:20:00,
2013-03-11 06:23:00,26.1,22.2,29.97,SW,231,3.0,8.0,85,0.00,,---,0.00,VWS V14.01,2013-03-11 11:23:00,
2013-03-11 06:28:00,26.1,22.2,29.98,SW,235,1.0,8.0,85,0.00,,---,0.00,VWS V14.01,2013-03-11 11:28:00,
2013-03-11 06:30:00,26.2,22.3,29.98,SW,235,3.0,8.0,85,0.00,,---,0.00,VWS V14.01,2013-03-11 11:30:00,
2013-03-11 06:33:00,26.2,22.3,29.98,NW,323,4.0,10.0,85,0.00,,---,0.00,VWS V14.01,2013-03-11 11:33:00,
2013-03-11 06:38:00,26.2,22.0,29.98,WSW,250,4.0,10.0,84,0.00,,---,0.00,VWS V14.01,2013-03-11 11:38:00,
2013-03-11 06:40:00,26.2,22.0,29.98,WSW,256,5.0,10.0,84,0.00,,---,0.00,VWS V14.01,2013-03-11 11:40:00,
2013-03-11 06:43:00,26.2,22.0,29.99,WNW,285,4.0,10.0,84,0.00,,---,0.00,VWS V14.01,2013-03-11 11:43:00,
2013-03-11 06:48:00,26.2,22.3,29.99,WNW,289,4.0,13.0,85,0.00,,---,0.00,VWS V14.01,2013-03-11 11:48:00,
2013-03-11 06:50:00,26.2,22.3,29.99,WNW,289,4.0,13.0,85,0.00,,---,0.00,VWS V14.01,2013-03-11 11:50:00,
2013-03-11 06:53:00,26.2,22.3,29.99,SSW,212,2.0,8.0,85,0.00,,---,0.00,VWS V14.01,2013-03-11 11:53:00,
2013-03-11 06:58:00,26.2,22.0,29.99,SSW,198,3.0,8.0,84,0.00,,---,0.00,VWS V14.01,2013-03-11 11:58:00,
2013-03-11 07:00:00,26.2,22.0,29.99,SSW,198,3.0,8.0,84,0.00,,---,0.00,VWS V14.01,2013-03-11 12:00:00,
2013-03-11 07:03:00,26.1,21.9,29.99,WSW,253,2.0,7.0,84,0.00,,---,0.00,VWS V14.01,2013-03-11 12:03:00,
2013-03-11 07:08:00,26.1,21.9,29.99,West,279,2.0,2.0,84,0.00,,---,0.00,VWS V14.01,2013-03-11 12:08:00,
2013-03-11 07:10:00,26.1,21.9,29.99,West,279,2.0,7.0,84,0.00,,---,0.00,VWS V14.01,2013-03-11 12:10:00,
2013-03-11 07:13:00,26.0,21.8,29.99,WSW,248,6.0,8.0,84,0.00,,---,0.00,VWS V14.01,2013-03-11 12:13:00,
2013-03-11 07:18:00,25.8,21.6,29.99,West,271,4.0,4.0,84,0.00,,---,0.00,VWS V14.01,2013-03-11 12:18:00,
2013-03-11 07:20:00,25.8,21.6,29.99,West,271,2.0,8.0,84,0.00,,---,0.00,VWS V14.01,2013-03-11 12:20:00,
2013-03-11 07:23:00,25.7,21.8,30.00,NNW,327,2.0,9.0,85,0.00,,---,0.00,VWS V14.01,2013-03-11 12:23:00,
2013-03-11 07:29:00,25.6,21.5,30.00,NE,36,8.0,9.0,84,0.00,,---,0.00,VWS V14.01,2013-03-11 12:29:00,
2013-03-11 07:30:00,25.6,21.5,30.00,ENE,61,8.0,11.0,84,0.00,,---,0.00,VWS V14.01,2013-03-11 12:30:00,
2013-03-11 07:34:00,25.5,21.4,30.00,SSW,212,4.0,11.0,84,0.00,,---,0.00,VWS V14.01,2013-03-11 12:34:00,
2013-03-11 07:39:00,25.3,21.1,30.00,NNW,344,1.0,1.0,84,0.00,,---,0.00,VWS V14.01,2013-03-11 12:39:00,
2013-03-11 07:40:00,25.3,21.1,30.00,NNW,345,0.0,11.0,84,0.00,,---,0.00,VWS V14.01,2013-03-11 12:40:00,
2013-03-11 07:44:00,25.2,21.0,30.00,WSW,238,2.0,7.0,84,0.00,,---,0.00,VWS V14.01,2013-03-11 12:44:00,
2013-03-11 07:49:00,25.2,21.0,30.00,WSW,257,3.0,6.0,84,0.00,,---,0.00,VWS V14.01,2013-03-11 12:49:00,
2013-03-11 07:50:00,25.1,21.0,30.00,West,278,0.0,7.0,84,0.00,,---,0.00,VWS V14.01,2013-03-11 12:50:00,
2013-03-11 07:54:00,25.1,21.0,30.00,North,360,3.0,8.0,84,0.00,,---,0.00,VWS V14.01,2013-03-11 12:54:00,
2013-03-11 07:59:00,25.0,20.9,30.01,SSW,201,1.0,2.0,84,0.00,,---,0.00,VWS V14.01,2013-03-11 12:59:00,
2013-03-11 08:00:00,25.1,21.0,30.01,SSW,201,2.0,9.0,84,0.00,,---,0.00,VWS V14.01,2013-03-11 13:00:00,
2013-03-11 08:04:00,25.0,21.1,30.01,SW,217,1.0,7.0,85,0.00,,---,0.00,VWS V14.01,2013-03-11 13:04:00,
2013-03-11 08:09:00,25.0,21.4,30.01,SW,227,1.0,4.0,86,0.00,,---,0.00,VWS V14.01,2013-03-11 13:09:00,
2013-03-11 08:10:00,25.0,21.4,30.01,SW,227,3.0,7.0,86,0.00,,---,0.00,VWS V14.01,2013-03-11 13:10:00,
2013-03-11 08:14:00,25.0,21.4,30.01,WSW,246,3.0,7.0,86,0.00,,---,0.00,VWS V14.01,2013-03-11 13:14:00,
2013-03-11 08:19:00,24.9,21.0,30.01,West,268,6.0,7.0,85,0.00,,---,0.00,VWS V14.01,2013-03-11 13:19:00,
2013-03-11 08:20:00,24.9,21.3,30.01,WSW,252,4.0,9.0,86,0.00,,---,0.00,VWS V14.01,2013-03-11 13:20:00,
2013-03-11 08:24:00,24.8,21.2,30.01,SW,217,1.0,8.0,86,0.00,,---,0.00,VWS V14.01,2013-03-11 13:24:00,
2013-03-11 08:29:00,24.7,21.1,30.01,WSW,240,4.0,10.0,86,0.00,,---,0.00,VWS V14.01,2013-03-11 13:29:00,
2013-03-11 08:30:00,24.7,21.1,30.01,WSW,237,6.0,9.0,86,0.00,,---,0.00,VWS V14.01,2013-03-11 13:30:00,
2013-03-11 08:34:00,24.7,21.1,30.01,SSW,211,2.0,10.0,86,0.00,,---,0.00,VWS V14.01,2013-03-11 13:34:00,
2013-03-11 08:39:00,24.6,21.0,30.01,West,265,3.0,8.0,86,0.00,,---,0.00,VWS V14.01,2013-03-11 13:39:00,
2013-03-11 08:40:00,24.6,21.0,30.01,West,271,5.0,10.0,86,0.00,,---,0.00,VWS V14.01,2013-03-11 13:40:00,
2013-03-11 08:44:00,24.6,21.0,30.01,West,266,4.0,8.0,86,0.00,,---,0.00,VWS V14.01,2013-03-11 13:44:00,
2013-03-11 08:49:00,24.6,21.0,30.01,WNW,296,2.0,6.0,86,0.00,,---,0.00,VWS V14.01,2013-03-11 13:49:00,
2013-03-11 08:50:00,24.6,21.0,30.01,West,261,3.0,8.0,86,0.00,,---,0.00,VWS V14.01,2013-03-11 13:50:00,
2013-03-11 08:54:00,24.7,21.1,30.01,WSW,239,4.0,6.0,86,0.00,,---,0.00,VWS V14.01,2013-03-11 13:54:00,
2013-03-11 08:59:00,24.8,21.2,30.01,West,262,2.0,4.0,86,0.00,,---,0.00,VWS V14.01,2013-03-11 13:59:00,
2013-03-11 09:00:00,24.8,21.2,30.01,South,191,3.0,8.0,86,0.00,,---,0.00,VWS V14.01,2013-03-11 14:00:00,
2013-03-11 09:04:00,24.8,20.9,30.02,WNW,290,2.0,7.0,85,0.00,,---,0.00,VWS V14.01,2013-03-11 14:04:00,
2013-03-11 09:09:00,24.9,21.0,30.02,WSW,248,3.0,5.0,85,0.00,,---,0.00,VWS V14.01,2013-03-11 14:09:00,
2013-03-11 09:10:00,24.9,21.0,30.01,SW,223,2.0,8.0,85,0.00,,---,0.00,VWS V14.01,2013-03-11 14:10:00,
2013-03-11 09:14:00,25.0,21.1,30.02,WNW,288,12.0,12.0,85,0.00,,---,0.00,VWS V14.01,2013-03-11 14:14:00,
2013-03-11 09:19:00,25.0,21.1,30.02,SW,233,1.0,4.0,85,0.00,,---,0.00,VWS V14.01,2013-03-11 14:19:00,
2013-03-11 09:20:00,25.0,21.1,30.02,West,265,1.0,12.0,85,0.00,,---,0.00,VWS V14.01,2013-03-11 14:20:00,
2013-03-11 09:24:00,25.0,20.9,30.02,WSW,242,1.0,9.0,84,0.00,,---,0.00,VWS V14.01,2013-03-11 14:24:00,
2013-03-11 09:29:00,25.0,21.1,30.02,NW,323,5.0,5.0,85,0.00,,---,0.00,VWS V14.01,2013-03-11 14:29:00,
2013-03-11 09:30:00,25.0,20.9,30.02,West,264,3.0,11.0,84,0.00,,---,0.00,VWS V14.01,2013-03-11 14:30:00,
2013-03-11 09:34:00,25.1,21.0,30.02,North,355,1.0,8.0,84,0.00,,---,0.00,VWS V14.01,2013-03-11 14:34:00,
2013-03-11 09:39:00,25.2,21.0,30.02,WNW,302,2.0,6.0,84,0.00,,---,0.00,VWS V14.01,2013-03-11 14:39:00,
2013-03-11 09:40:00,25.2,21.0,30.02,NW,310,2.0,8.0,84,0.00,,---,0.00,VWS V14.01,2013-03-11 14:40:00,
2013-03-11 09:44:00,25.2,21.0,30.02,WSW,254,4.0,9.0,84,0.00,,---,0.00,VWS V14.01,2013-03-11 14:44:00,
2013-03-11 09:49:00,25.2,20.8,30.03,West,259,4.0,4.0,83,0.00,,---,0.00,VWS V14.01,2013-03-11 14:49:00,
2013-03-11 09:50:00,25.2,20.8,30.03,West,264,2.0,9.0,83,0.00,,---,0.00,VWS V14.01,2013-03-11 14:50:00,
2013-03-11 09:54:00,25.3,21.1,30.03,West,267,5.0,10.0,84,0.00,,---,0.00,VWS V14.01,2013-03-11 14:54:00,
2013-03-11 09:59:00,25.3,20.9,30.03,WNW,292,7.0,8.0,83,0.00,,---,0.00,VWS V14.01,2013-03-11 14:59:00,
2013-03-11 10:00:00,25.3,21.1,30.03,WNW,283,4.0,10.0,84,0.00,,---,0.00,VWS V14.01,2013-03-11 15:00:00,
2013-03-11 10:04:00,25.3,21.1,30.03,WSW,254,2.0,8.0,84,0.00,,---,0.00,VWS V14.01,2013-03-11 15:04:00,
2013-03-11 10:09:00,25.3,20.9,30.03,West,278,2.0,7.0,83,0.00,,---,0.00,VWS V14.01,2013-03-11 15:09:00,
2013-03-11 10:10:00,25.3,21.1,30.03,WSW,258,3.0,8.0,84,0.00,,---,0.00,VWS V14.01,2013-03-11 15:10:00,
2013-03-11 10:14:00,25.4,21.0,30.03,WNW,293,4.0,9.0,83,0.00,,---,0.00,VWS V14.01,2013-03-11 15:14:00,
2013-03-11 10:19:00,25.3,20.6,30.03,WSW,257,6.0,10.0,82,0.00,,---,0.00,VWS V14.01,2013-03-11 15:19:00,
2013-03-11 10:20:00,25.3,20.9,30.03,NW,314,1.0,9.0,83,0.00,,---,0.00,VWS V14.01,2013-03-11 15:20:00,
2013-03-11 10:24:00,25.2,20.8,30.04,West,279,1.0,10.0,83,0.00,,---,0.00,VWS V14.01,2013-03-11 15:24:00,
2013-03-11 10:29:00,25.3,20.9,30.03,SW,227,6.0,10.0,83,0.00,,---,0.00,VWS V14.01,2013-03-11 15:29:00,
2013-03-11 10:30:00,25.3,20.9,30.04,WSW,257,4.0,10.0,83,0.00,,---,0.00,VWS V14.01,2013-03-11 15:30:00,
2013-03-11 10:34:00,25.3,20.9,30.03,NW,304,2.0,11.0,83,0.00,,---,0.00,VWS V14.01,2013-03-11 15:34:00,
2013-03-11 10:39:00,25.3,20.9,30.03,West,261,4.0,7.0,83,0.00,,---,0.00,VWS V14.01,2013-03-11 15:39:00,
2013-03-11 10:40:00,25.3,20.9,30.03,SSW,212,2.0,11.0,83,0.00,,---,0.00,VWS V14.01,2013-03-11 15:40:00,
2013-03-11 10:44:00,25.5,21.1,30.03,WSW,257,4.0,7.0,83,0.00,,---,0.00,VWS V14.01,2013-03-11 15:44:00,
2013-03-11 10:49:00,25.7,21.3,30.04,NNW,334,1.0,6.0,83,0.00,,---,0.00,VWS V14.01,2013-03-11 15:49:00,
2013-03-11 10:50:00,25.6,21.2,30.04,WSW,242,3.0,9.0,83,0.00,,---,0.00,VWS V14.01,2013-03-11 15:50:00,
2013-03-11 10:54:00,25.8,21.1,30.04,NW,313,2.0,13.0,82,0.00,,---,0.00,VWS V14.01,2013-03-11 15:54:00,
2013-03-11 10:59:00,25.8,21.1,30.03,West,268,1.0,4.0,82,0.00,,---,0.00,VWS V14.01,2013-03-11 15:59:00,
2013-03-11 11:00:00,25.8,21.1,30.03,WSW,242,3.0,13.0,82,0.00,,---,0.00,VWS V14.01,2013-03-11 16:00:00,
2013-03-11 11:04:00,25.9,20.9,30.04,East,89,6.0,10.0,81,0.00,,---,0.00,VWS V14.01,2013-03-11 16:04:00,
2013-03-11 11:09:00,25.9,20.9,30.04,WSW,254,2.0,5.0,81,0.00,,---,0.00,VWS V14.01,2013-03-11 16:09:00,
2013-03-11 11:10:00,25.8,20.8,30.04,West,272,2.0,13.0,81,0.00,,---,0.00,VWS V14.01,2013-03-11 16:10:00,
2013-03-11 11:14:00,26.0,21.3,30.04,WSW,251,3.0,10.0,82,0.00,,---,0.00,VWS V14.01,2013-03-11 16:14:00,
2013-03-11 11:19:00,26.1,21.1,30.04,WNW,298,2.0,11.0,81,0.00,,---,0.00,VWS V14.01,2013-03-11 16:19:00,
2013-03-11 11:20:00,26.1,20.8,30.04,WSW,239,7.0,12.0,80,0.00,,---,0.00,VWS V14.01,2013-03-11 16:20:00,
2013-03-11 11:24:00,26.2,21.2,30.04,SW,232,4.0,13.0,81,0.00,,---,0.00,VWS V14.01,2013-03-11 16:24:00,
2013-03-11 11:29:00,26.2,20.9,30.04,West,267,4.0,12.0,80,0.00,,---,0.00,VWS V14.01,2013-03-11 16:29:00,
2013-03-11 11:30:00,26.2,20.9,30.04,WSW,251,3.0,13.0,80,0.00,,---,0.00,VWS V14.01,2013-03-11 16:30:00,
2013-03-11 11:34:00,26.3,21.3,30.04,WSW,252,4.0,12.0,81,0.00,,---,0.00,VWS V14.01,2013-03-11 16:34:00,
2013-03-11 11:39:00,26.5,21.5,30.04,West,273,5.0,6.0,81,0.00,,---,0.00,VWS V14.01,2013-03-11 16:39:00,
2013-03-11 11:40:00,26.5,21.5,30.03,SSW,194,2.0,12.0,81,0.00,,---,0.00,VWS V14.01,2013-03-11 16:40:00,
2013-03-11 11:45:00,26.8,21.5,30.04,West,275,1.0,10.0,80,0.00,,---,0.00,VWS V14.01,2013-03-11 16:45:00,
2013-03-11 11:50:00,27.0,21.4,30.03,West,263,2.0,5.0,79,0.00,,---,0.00,VWS V14.01,2013-03-11 16:50:00,
2013-03-11 11:55:00,27.2,21.6,30.03,SSW,198,4.0,7.0,79,0.00,,---,0.00,VWS V14.01,2013-03-11 16:55:00,
2013-03-11 12:00:00,27.4,21.8,30.03,SSW,211,2.0,4.0,79,0.00,,---,0.00,VWS V14.01,2013-03-11 17:00:00,
2013-03-11 12:05:00,27.9,22.5,30.04,WSW,239,5.0,7.0,80,0.00,,---,0.00,VWS V14.01,2013-03-11 17:05:00,
2013-03-11 12:10:00,28.3,22.6,30.04,WSW,254,4.0,9.0,79,0.00,,---,0.00,VWS V14.01,2013-03-11 17:10:00,
2013-03-11 12:15:00,28.5,22.5,30.04,SSW,209,3.0,9.0,78,0.00,,---,0.00,VWS V14.01,2013-03-11 17:15:00,
2013-03-11 12:20:00,28.6,22.6,30.04,WSW,254,1.0,4.0,78,0.00,,---,0.00,VWS V14.01,2013-03-11 17:20:00,
2013-03-11 12:25:00,28.7,22.4,30.05,SW,215,5.0,7.0,77,0.00,,---,0.00,VWS V14.01,2013-03-11 17:25:00,
2013-03-11 12:30:00,28.5,22.2,30.05,WNW,298,1.0,5.0,77,0.00,,---,0.00,VWS V14.01,2013-03-11 17:30:00,
2013-03-11 12:35:00,28.5,22.2,30.05,WSW,248,2.0,7.0,77,0.00,,---,0.00,VWS V14.01,2013-03-11 17:35:00,
2013-03-11 12:40:00,28.5,22.2,30.05,NNE,24,0.0,6.0,77,0.00,,---,0.00,VWS V14.01,2013-03-11 17:40:00,
2013-03-11 12:45:00,28.5,22.2,30.05,West,281,2.0,8.0,77,0.00,,---,0.00,VWS V14.01,2013-03-11 17:45:00,
2013-03-11 12:50:00,28.4,22.1,30.04,SW,230,2.0,12.0,77,0.00,,---,0.00,VWS V14.01,2013-03-11 17:50:00,
2013-03-11 12:55:00,28.5,22.2,30.05,WSW,249,1.0,12.0,77,0.00,,---,0.00,VWS V14.01,2013-03-11 17:55:00,
2013-03-11 13:00:00,28.7,22.7,30.04,West,259,2.0,8.0,78,0.00,,---,0.00,VWS V14.01,2013-03-11 18:00:00,
2013-03-11 13:05:00,28.9,22.6,30.04,North,5,3.0,8.0,77,0.00,,---,0.00,VWS V14.01,2013-03-11 18:05:00,
2013-03-11 13:10:00,29.2,22.9,30.05,NW,309,2.0,4.0,77,0.00,,---,0.00,VWS V14.01,2013-03-11 18:10:00,
2013-03-11 13:15:00,29.4,23.1,30.04,WNW,286,1.0,6.0,77,0.00,,---,0.00,VWS V14.01,2013-03-11 18:15:00,
2013-03-11 13:20:00,29.6,23.3,30.04,WSW,248,3.0,5.0,77,0.00,,---,0.00,VWS V14.01,2013-03-11 18:20:00,
2013-03-11 13:25:00,29.7,23.4,30.04,West,262,5.0,5.0,77,0.00,,---,0.00,VWS V14.01,2013-03-11 18:25:00,
2013-03-11 13:30:00,29.7,23.4,30.04,West,261,2.0,3.0,77,0.00,,---,0.00,VWS V14.01,2013-03-11 18:30:00,
2013-03-11 13:35:00,29.8,23.5,30.04,SW,219,1.0,5.0,77,0.00,,---,0.00,VWS V14.01,2013-03-11 18:35:00,
2013-03-11 13:40:00,29.9,23.3,30.04,WSW,248,3.0,5.0,76,0.00,,---,0.00,VWS V14.01,2013-03-11 18:40:00,
2013-03-11 13:45:00,29.8,23.2,30.05,West,261,1.0,6.0,76,0.00,,---,0.00,VWS V14.01,2013-03-11 18:45:00,
2013-03-11 13:50:00,29.8,23.2,30.04,WNW,284,4.0,4.0,76,0.00,,---,0.00,VWS V14.01,2013-03-11 18:50:00,
2013-03-11 13:55:00,29.8,23.2,30.04,West,275,6.0,7.0,76,0.00,,---,0.00,VWS V14.01,2013-03-11 18:55:00,
2013-03-11 14:00:00,29.9,23.3,30.04,SSW,205,1.0,5.0,76,0.00,,---,0.00,VWS V14.01,2013-03-11 19:00:00,
2013-03-11 14:05:00,30.1,23.5,30.04,SSW,208,2.0,7.0,76,0.00,,---,0.00,VWS V14.01,2013-03-11 19:05:00,
2013-03-11 14:10:00,30.4,24.1,30.04,WSW,251,3.0,6.0,77,0.00,,---,0.00,VWS V14.01,2013-03-11 19:10:00,
2013-03-11 14:15:00,30.7,23.7,30.04,NNW,342,4.0,8.0,75,0.00,,---,0.00,VWS V14.01,2013-03-11 19:15:00,
2013-03-11 14:20:00,31.0,24.0,30.04,WNW,289,7.0,12.0,75,0.00,,---,0.00,VWS V14.01,2013-03-11 19:20:00,
2013-03-11 14:25:00,30.8,23.2,30.04,SW,221,1.0,12.0,73,0.00,,---,0.00,VWS V14.01,2013-03-11 19:25:00,
2013-03-11 14:30:00,30.7,23.4,30.04,West,277,4.0,7.0,74,0.00,,---,0.00,VWS V14.01,2013-03-11 19:30:00,
2013-03-11 14:35:00,30.7,23.1,30.04,NNW,338,2.0,7.0,73,0.00,,---,0.00,VWS V14.01,2013-03-11 19:35:00,
2013-03-11 14:40:00,30.6,23.3,30.03,WNW,296,5.0,8.0,74,0.00,,---,0.00,VWS V14.01,2013-03-11 19:40:00,
2013-03-11 14:45:00,30.5,23.2,30.03,NNW,327,4.0,9.0,74,0.00,,---,0.00,VWS V14.01,2013-03-11 19:45:00,
2013-03-11 14:50:00,30.6,23.3,30.03,South,175,5.0,7.0,74,0.00,,---,0.00,VWS V14.01,2013-03-11 19:50:00,
2013-03-11 14:55:00,30.7,22.8,30.03,West,263,2.0,9.0,72,0.00,,---,0.00,VWS V14.01,2013-03-11 19:55:00,
2013-03-11 15:00:00,30.8,23.2,30.04,SW,232,2.0,6.0,73,0.00,,---,0.00,VWS V14.01,2013-03-11 20:00:00,
2013-03-11 15:05:00,30.9,23.3,30.03,SE,128,2.0,8.0,73,0.00,,---,0.00,VWS V14.01,2013-03-11 20:05:00,
2013-03-11 15:10:00,31.0,23.0,30.03,SW,232,2.0,8.0,72,0.00,,---,0.00,VWS V14.01,2013-03-11 20:10:00,
2013-03-11 15:15:00,31.0,23.0,30.02,SW,236,6.0,8.0,72,0.00,,---,0.00,VWS V14.01,2013-03-11 20:15:00,
2013-03-11 15:20:00,30.9,23.3,30.02,SW,227,2.0,4.0,73,0.00,,---,0.00,VWS V14.01,2013-03-11 20:20:00,
2013-03-11 15:25:00,31.1,23.1,30.03,WSW,246,3.0,8.0,72,0.00,,---,0.00,VWS V14.01,2013-03-11 20:25:00,
2013-03-11 15:30:00,31.6,23.3,30.02,West,264,3.0,7.0,71,0.00,,---,0.00,VWS V14.01,2013-03-11 20:30:00,
2013-03-11 15:35:00,32.0,23.7,30.01,West,259,1.0,7.0,71,0.00,,---,0.00,VWS V14.01,2013-03-11 20:35:00,
2013-03-11 15:40:00,32.3,24.0,30.02,SSW,198,5.0,5.0,71,0.00,,---,0.00,VWS V14.01,2013-03-11 20:40:00,
2013-03-11 15:45:00,32.6,24.2,30.02,WSW,254,3.0,8.0,71,0.00,,---,0.00,VWS V14.01,2013-03-11 20:45:00,
2013-03-11 15:50:00,32.9,24.2,30.02,NW,316,2.0,6.0,70,0.00,,---,0.00,VWS V14.01,2013-03-11 20:50:00,
2013-03-11 15:55:00,33.0,24.3,30.02,NW,321,6.0,6.0,70,0.00,,---,0.00,VWS V14.01,2013-03-11 20:55:00,
2013-03-11 16:00:00,32.9,23.2,30.02,NNW,333,6.0,10.0,67,0.00,,---,0.00,VWS V14.01,2013-03-11 21:00:00,
2013-03-11 16:05:00,32.9,23.5,30.01,WNW,298,2.0,10.0,68,0.00,,---,0.00,VWS V14.01,2013-03-11 21:05:00,
2013-03-11 16:10:00,33.3,24.2,30.02,SSW,205,3.0,8.0,69,0.00,,---,0.00,VWS V14.01,2013-03-11 21:10:00,
2013-03-11 16:15:00,33.7,23.9,30.02,SW,233,5.0,11.0,67,0.00,,---,0.00,VWS V14.01,2013-03-11 21:15:00,
2013-03-11 16:20:00,33.7,23.6,30.02,West,265,0.0,7.0,66,0.00,,---,0.00,VWS V14.01,2013-03-11 21:20:00,
2013-03-11 16:25:00,33.8,24.4,30.02,WNW,302,2.0,9.0,68,0.00,,---,0.00,VWS V14.01,2013-03-11 21:25:00,
2013-03-11 16:30:00,34.1,24.7,30.02,NW,317,4.0,12.0,68,0.00,,---,0.00,VWS V14.01,2013-03-11 21:30:00,
2013-03-11 16:35:00,34.3,24.5,30.03,SW,234,1.0,12.0,67,0.00,,---,0.00,VWS V14.01,2013-03-11 21:35:00,
2013-03-11 16:40:00,34.6,24.8,30.02,WSW,237,3.0,5.0,67,0.00,,---,0.00,VWS V14.01,2013-03-11 21:40:00,
2013-03-11 16:45:00,34.9,25.1,30.02,WSW,237,1.0,5.0,67,0.00,,---,0.00,VWS V14.01,2013-03-11 21:45:00,
2013-03-11 16:50:00,35.1,24.9,30.02,SW,227,4.0,7.0,66,0.00,,---,0.00,VWS V14.01,2013-03-11 21:50:00,
2013-03-11 16:56:00,35.2,24.6,30.02,WSW,255,6.0,9.0,65,0.00,,---,0.00,VWS V14.01,2013-03-11 21:56:00,
2013-03-11 17:00:00,35.3,24.4,30.02,West,281,2.0,9.0,64,0.00,,---,0.00,VWS V14.01,2013-03-11 22:00:00,
2013-03-11 17:01:00,35.2,24.6,30.02,SW,230,4.0,6.0,65,0.00,,---,0.00,VWS V14.01,2013-03-11 22:01:00,
2013-03-11 17:06:00,35.1,24.2,30.02,NW,312,5.0,10.0,64,0.00,,---,0.00,VWS V14.01,2013-03-11 22:06:00,
2013-03-11 17:10:00,35.0,24.1,30.02,WSW,252,6.0,10.0,64,0.00,,---,0.00,VWS V14.01,2013-03-11 22:10:00,
2013-03-11 17:11:00,35.0,24.1,30.02,West,263,2.0,6.0,64,0.00,,---,0.00,VWS V14.01,2013-03-11 22:11:00,
2013-03-11 17:16:00,35.0,24.4,30.04,SW,232,4.0,6.0,65,0.00,,---,0.00,VWS V14.01,2013-03-11 22:16:00,
2013-03-11 17:20:00,35.1,24.2,30.03,North,355,2.0,9.0,64,0.00,,---,0.00,VWS V14.01,2013-03-11 22:20:00,
2013-03-11 17:21:00,35.1,24.2,30.04,East,90,4.0,7.0,64,0.00,,---,0.00,VWS V14.01,2013-03-11 22:21:00,
2013-03-11 17:26:00,35.2,23.9,30.03,WSW,240,0.0,11.0,63,0.00,,---,0.00,VWS V14.01,2013-03-11 22:26:00,
2013-03-11 17:30:00,35.3,24.4,30.04,WNW,302,2.0,11.0,64,0.00,,---,0.00,VWS V14.01,2013-03-11 22:30:00,
2013-03-11 17:31:00,35.3,24.4,30.04,WNW,297,5.0,8.0,64,0.00,,---,0.00,VWS V14.01,2013-03-11 22:31:00,
2013-03-11 17:36:00,35.3,24.0,30.04,West,277,4.0,8.0,63,0.00,,---,0.00,VWS V14.01,2013-03-11 22:36:00,
2013-03-11 17:40:00,35.3,23.6,30.03,West,277,0.0,8.0,62,0.00,,---,0.00,VWS V14.01,2013-03-11 22:40:00,
2013-03-11 17:41:00,35.3,23.6,30.03,West,262,4.0,5.0,62,0.00,,---,0.00,VWS V14.01,2013-03-11 22:41:00,
2013-03-11 17:46:00,35.5,24.2,30.04,SW,227,4.0,6.0,63,0.00,,---,0.00,VWS V14.01,2013-03-11 22:46:00,
2013-03-11 17:50:00,35.5,24.2,30.04,SSW,212,2.0,7.0,63,0.00,,---,0.00,VWS V14.01,2013-03-11 22:50:00,
2013-03-11 17:51:00,35.5,23.8,30.03,WNW,294,2.0,6.0,62,0.00,,---,0.00,VWS V14.01,2013-03-11 22:51:00,
2013-03-11 17:56:00,35.3,23.2,30.03,WSW,242,2.0,8.0,61,0.00,,---,0.00,VWS V14.01,2013-03-11 22:56:00,
2013-03-11 18:00:00,35.3,23.2,30.03,NW,310,4.0,9.0,61,0.00,,---,0.00,VWS V14.01,2013-03-11 23:00:00,
2013-03-11 18:01:00,35.3,23.2,30.03,SSW,213,5.0,7.0,61,0.00,,---,0.00,VWS V14.01,2013-03-11 23:01:00,
2013-03-11 18:06:00,35.4,23.7,30.04,NNW,342,2.0,7.0,62,0.00,,---,0.00,VWS V14.01,2013-03-11 23:06:00,
2013-03-11 18:10:00,35.5,23.8,30.03,NNW,340,1.0,7.0,62,0.00,,---,0.00,VWS V14.01,2013-03-11 23:10:00,
2013-03-11 18:11:00,35.7,24.0,30.04,West,263,3.0,7.0,62,0.00,,---,0.00,VWS V14.01,2013-03-11 23:11:00,
2013-03-11 18:16:00,36.0,24.3,30.04,WNW,289,4.0,7.0,62,0.00,,---,0.00,VWS V14.01,2013-03-11 23:16:00,
2013-03-11 18:20:00,36.0,24.3,30.04,NW,315,2.0,7.0,62,0.00,,---,0.00,VWS V14.01,2013-03-11 23:20:00,
2013-03-11 18:21:00,36.0,23.9,30.04,NNW,333,2.0,3.0,61,0.00,,---,0.00,VWS V14.01,2013-03-11 23:21:00,
2013-03-11 18:26:00,36.0,23.9,30.04,West,263,3.0,5.0,61,0.00,,---,0.00,VWS V14.01,2013-03-11 23:26:00,
2013-03-11 18:30:00,35.9,24.2,30.04,WSW,257,0.0,5.0,62,0.00,,---,0.00,VWS V14.01,2013-03-11 23:30:00,
2013-03-11 18:31:00,35.9,24.5,30.04,West,263,1.0,4.0,63,0.00,,---,0.00,VWS V14.01,2013-03-11 23:31:00,
2013-03-11 18:36:00,35.8,24.5,30.04,WSW,242,3.0,4.0,63,0.00,,---,0.00,VWS V14.01,2013-03-11 23:36:00,
2013-03-11 18:40:00,35.7,24.4,30.04,West,277,2.0,5.0,63,0.00,,---,0.00,VWS V14.01,2013-03-11 23:40:00,
2013-03-11 18:42:00,35.6,24.3,30.04,West,277,0.0,5.0,63,0.00,,---,0.00,VWS V14.01,2013-03-11 23:42:00,
2013-03-11 18:47:00,35.4,24.1,30.04,NW,308,0.0,6.0,63,0.00,,---,0.00,VWS V14.01,2013-03-11 23:47:00,
2013-03-11 18:50:00,35.3,24.4,30.05,NW,308,1.0,6.0,64,0.00,,---,0.00,VWS V14.01,2013-03-11 23:50:00,
2013-03-11 18:52:00,35.2,24.3,30.05,NW,308,1.0,2.0,64,0.00,,---,0.00,VWS V14.01,2013-03-11 23:52:00,
2013-03-11 18:57:00,35.1,24.5,30.05,NW,308,0.0,4.0,65,0.00,,---,0.00,VWS V14.01,2013-03-11 23:57:00,
2013-03-11 19:00:00,35.0,24.4,30.05,WNW,290,1.0,4.0,65,0.00,,---,0.00,VWS V14.01,2013-03-12 00:00:00,
2013-03-11 19:02:00,34.9,24.0,30.05,WSW,238,1.0,4.0,64,0.00,,---,0.00,VWS V14.01,2013-03-12 00:02:00,
2013-03-11 19:07:00,34.6,23.7,30.06,WSW,243,3.0,4.0,64,0.00,,---,0.00,VWS V14.01,2013-03-12 00:07:00,
2013-03-11 19:10:00,34.6,24.1,30.06,WNW,285,1.0,4.0,65,0.00,,---,0.00,VWS V14.01,2013-03-12 00:10:00,
2013-03-11 19:12:00,34.4,24.2,30.07,WNW,289,0.0,2.0,66,0.00,,---,0.00,VWS V14.01,2013-03-12 00:12:00,
2013-03-11 19:17:00,34.2,24.0,30.07,West,281,0.0,5.0,66,0.00,,---,0.00,VWS V14.01,2013-03-12 00:17:00,
2013-03-11 19:20:00,34.2,24.0,30.08,West,281,0.0,5.0,66,0.00,,---,0.00,VWS V14.01,2013-03-12 00:20:00,
2013-03-11 19:22:00,34.1,24.0,30.08,West,281,0.0,1.0,66,0.00,,---,0.00,VWS V14.01,2013-03-12 00:22:00,
2013-03-11 19:27:00,33.8,23.7,30.08,West,281,1.0,2.0,66,0.00,,---,0.00,VWS V14.01,2013-03-12 00:27:00,
2013-03-11 19:30:00,33.8,24.0,30.08,West,281,2.0,2.0,67,0.00,,---,0.00,VWS V14.01,2013-03-12 00:30:00,
2013-03-11 19:32:00,33.6,23.8,30.08,West,281,0.0,2.0,67,0.00,,---,0.00,VWS V14.01,2013-03-12 00:32:00,
2013-03-11 19:37:00,33.4,24.0,30.08,West,281,0.0,4.0,68,0.00,,---,0.00,VWS V14.01,2013-03-12 00:37:00,
2013-03-11 19:40:00,33.4,24.0,30.07,West,281,0.0,4.0,68,0.00,,---,0.00,VWS V14.01,2013-03-12 00:40:00,
2013-03-11 19:42:00,33.3,23.9,30.08,West,281,0.0,1.0,68,0.00,,---,0.00,VWS V14.01,2013-03-12 00:42:00,
2013-03-11 19:47:00,33.1,24.0,30.07,West,281,0.0,1.0,69,0.00,,---,0.00,VWS V14.01,2013-03-12 00:47:00,
2013-03-11 19:50:00,33.0,24.0,30.07,West,281,0.0,1.0,69,0.00,,---,0.00,VWS V14.01,2013-03-12 00:50:00,
2013-03-11 19:52:00,32.9,23.9,30.07,West,281,0.0,0.0,69,0.00,,---,0.00,VWS V14.01,2013-03-12 00:52:00,
2013-03-11 19:57:00,32.7,24.0,30.07,West,281,0.0,0.0,70,0.00,,---,0.00,VWS V14.01,2013-03-12 00:57:00,
2013-03-11 20:00:00,32.7,24.4,30.07,West,281,0.0,0.0,71,0.00,,---,0.00,VWS V14.01,2013-03-12 01:00:00,
2013-03-11 20:02:00,32.5,24.2,30.07,West,281,0.0,0.0,71,0.00,,---,0.00,VWS V14.01,2013-03-12 01:02:00,
2013-03-11 20:07:00,32.3,24.3,30.06,West,281,0.0,0.0,72,0.00,,---,0.00,VWS V14.01,2013-03-12 01:07:00,
2013-03-11 20:10:00,32.3,24.3,30.07,West,281,0.0,0.0,72,0.00,,---,0.00,VWS V14.01,2013-03-12 01:10:00,
2013-03-11 20:12:00,32.1,24.1,30.07,West,281,0.0,0.0,72,0.00,,---,0.00,VWS V14.01,2013-03-12 01:12:00,
2013-03-11 20:18:00,31.9,23.9,30.07,West,281,0.0,0.0,72,0.00,,---,0.00,VWS V14.01,2013-03-12 01:18:00,
2013-03-11 20:20:00,31.8,23.8,30.07,West,281,0.0,0.0,72,0.00,,---,0.00,VWS V14.01,2013-03-12 01:20:00,
2013-03-11 20:23:00,31.6,24.0,30.08,West,281,0.0,0.0,73,0.00,,---,0.00,VWS V14.01,2013-03-12 01:23:00,
2013-03-11 20:28:00,31.4,23.8,30.08,West,281,0.0,0.0,73,0.00,,---,0.00,VWS V14.01,2013-03-12 01:28:00,
2013-03-11 20:30:00,31.4,23.8,30.08,West,281,0.0,0.0,73,0.00,,---,0.00,VWS V14.01,2013-03-12 01:30:00,
2013-03-11 20:33:00,31.2,23.9,30.08,West,281,0.0,0.0,74,0.00,,---,0.00,VWS V14.01,2013-03-12 01:33:00,
2013-03-11 20:38:00,31.0,23.7,30.08,West,281,0.0,0.0,74,0.00,,---,0.00,VWS V14.01,2013-03-12 01:38:00,
2013-03-11 20:40:00,31.0,23.7,30.08,West,281,0.0,0.0,74,0.00,,---,0.00,VWS V14.01,2013-03-12 01:40:00,
2013-03-11 20:43:00,30.8,23.8,30.08,West,281,0.0,0.0,75,0.00,,---,0.00,VWS V14.01,2013-03-12 01:43:00,
2013-03-11 20:48:00,30.6,23.6,30.08,West,281,0.0,0.0,75,0.00,,---,0.00,VWS V14.01,2013-03-12 01:48:00,
2013-03-11 20:50:00,30.6,23.6,30.08,West,281,0.0,0.0,75,0.00,,---,0.00,VWS V14.01,2013-03-12 01:50:00,
2013-03-11 20:53:00,30.4,23.8,30.08,West,281,0.0,0.0,76,0.00,,---,0.00,VWS V14.01,2013-03-12 01:53:00,
2013-03-11 20:58:00,30.1,23.5,30.08,West,281,0.0,0.0,76,0.00,,---,0.00,VWS V14.01,2013-03-12 01:58:00,
2013-03-11 21:00:00,30.1,23.5,30.08,West,281,0.0,0.0,76,0.00,,---,0.00,VWS V14.01,2013-03-12 02:00:00,
2013-03-11 21:03:00,29.9,23.6,30.07,West,281,0.0,0.0,77,0.00,,---,0.00,VWS V14.01,2013-03-12 02:03:00,
2013-03-11 21:08:00,29.6,23.3,30.07,West,281,0.0,0.0,77,0.00,,---,0.00,VWS V14.01,2013-03-12 02:08:00,
2013-03-11 21:10:00,29.6,23.3,30.07,West,281,0.0,0.0,77,0.00,,---,0.00,VWS V14.01,2013-03-12 02:10:00,
2013-03-11 21:13:00,29.4,23.4,30.08,West,281,0.0,0.0,78,0.00,,---,0.00,VWS V14.01,2013-03-12 02:13:00,
2013-03-11 21:18:00,29.2,23.2,30.07,West,281,0.0,0.0,78,0.00,,---,0.00,VWS V14.01,2013-03-12 02:18:00,
2013-03-11 21:20:00,29.1,23.1,30.07,West,281,0.0,0.0,78,0.00,,---,0.00,VWS V14.01,2013-03-12 02:20:00,
2013-03-11 21:23:00,29.0,23.3,30.08,West,281,0.0,0.0,79,0.00,,---,0.00,VWS V14.01,2013-03-12 02:23:00,
2013-03-11 21:28:00,28.8,23.1,30.08,West,281,0.0,0.0,79,0.00,,---,0.00,VWS V14.01,2013-03-12 02:28:00,
2013-03-11 21:30:00,28.8,23.1,30.08,West,281,0.0,0.0,79,0.00,,---,0.00,VWS V14.01,2013-03-12 02:30:00,
2013-03-11 21:33:00,28.6,23.2,30.08,West,281,0.0,0.0,80,0.00,,---,0.00,VWS V14.01,2013-03-12 02:33:00,
2013-03-11 21:38:00,28.5,23.4,30.09,West,281,0.0,0.0,81,0.00,,---,0.00,VWS V14.01,2013-03-12 02:38:00,
2013-03-11 21:40:00,28.5,23.4,30.09,West,281,0.0,0.0,81,0.00,,---,0.00,VWS V14.01,2013-03-12 02:40:00,
2013-03-11 21:43:00,28.4,23.3,30.09,West,281,0.0,0.0,81,0.00,,---,0.00,VWS V14.01,2013-03-12 02:43:00,
2013-03-11 21:48:00,28.3,23.2,30.09,West,281,0.0,0.0,81,0.00,,---,0.00,VWS V14.01,2013-03-12 02:48:00,
2013-03-11 21:50:00,28.3,23.5,30.09,West,281,0.0,0.0,82,0.00,,---,0.00,VWS V14.01,2013-03-12 02:50:00,
2013-03-11 21:53:00,28.3,23.5,30.10,West,281,0.0,0.0,82,0.00,,---,0.00,VWS V14.01,2013-03-12 02:53:00,
2013-03-11 21:58:00,28.2,23.4,30.09,West,281,0.0,0.0,82,0.00,,---,0.00,VWS V14.01,2013-03-12 02:58:00,
2013-03-11 22:00:00,28.2,23.4,30.09,West,281,0.0,0.0,82,0.00,,---,0.00,VWS V14.01,2013-03-12 03:00:00,
2013-03-11 22:03:00,28.1,23.6,30.09,West,281,0.0,0.0,83,0.00,,---,0.00,VWS V14.01,2013-03-12 03:03:00,
2013-03-11 22:08:00,28.1,23.6,30.10,West,281,0.0,0.0,83,0.00,,---,0.00,VWS V14.01,2013-03-12 03:08:00,
2013-03-11 22:10:00,28.1,23.6,30.10,West,281,0.0,0.0,83,0.00,,---,0.00,VWS V14.01,2013-03-12 03:10:00,
2013-03-11 22:13:00,28.0,23.5,30.10,West,281,0.0,0.0,83,0.00,,---,0.00,VWS V14.01,2013-03-12 03:13:00,
2013-03-11 22:18:00,27.9,23.1,30.09,West,281,0.0,0.0,82,0.00,,---,0.00,VWS V14.01,2013-03-12 03:18:00,
2013-03-11 22:20:00,27.9,23.1,30.09,West,281,0.0,0.0,82,0.00,,---,0.00,VWS V14.01,2013-03-12 03:20:00,
2013-03-11 22:23:00,27.9,23.4,30.09,West,281,0.0,0.0,83,0.00,,---,0.00,VWS V14.01,2013-03-12 03:23:00,
2013-03-11 22:28:00,27.9,23.4,30.08,West,281,0.0,0.0,83,0.00,,---,0.00,VWS V14.01,2013-03-12 03:28:00,
2013-03-11 22:30:00,27.9,23.4,30.08,West,281,0.0,0.0,83,0.00,,---,0.00,VWS V14.01,2013-03-12 03:30:00,
2013-03-11 22:33:00,27.7,23.2,30.09,West,281,0.0,0.0,83,0.00,,---,0.00,VWS V14.01,2013-03-12 03:33:00,
2013-03-11 22:38:00,27.6,23.1,30.09,West,281,0.0,0.0,83,0.00,,---,0.00,VWS V14.01,2013-03-12 03:38:00,
2013-03-11 22:40:00,27.6,23.1,30.09,West,281,0.0,0.0,83,0.00,,---,0.00,VWS V14.01,2013-03-12 03:40:00,
2013-03-11 22:43:00,27.5,23.3,30.10,West,281,0.0,0.0,84,0.00,,---,0.00,VWS V14.01,2013-03-12 03:43:00,
2013-03-11 22:48:00,27.5,23.6,30.10,West,281,0.0,0.0,85,0.00,,---,0.00,VWS V14.01,2013-03-12 03:48:00,
2013-03-11 22:50:00,27.5,23.6,30.10,West,281,0.0,0.0,85,0.00,,---,0.00,VWS V14.01,2013-03-12 03:50:00,
2013-03-11 22:53:00,27.6,23.4,30.09,West,281,0.0,0.0,84,0.00,,---,0.00,VWS V14.01,2013-03-12 03:53:00,
2013-03-11 22:58:00,27.5,23.3,30.10,West,281,0.0,0.0,84,0.00,,---,0.00,VWS V14.01,2013-03-12 03:58:00,
2013-03-11 23:00:00,27.5,23.3,30.10,West,281,0.0,0.0,84,0.00,,---,0.00,VWS V14.01,2013-03-12 04:00:00,
2013-03-11 23:05:00,27.3,23.1,30.09,West,281,0.0,0.0,84,0.00,,---,0.00,VWS V14.01,2013-03-12 04:05:00,
2013-03-11 23:10:00,27.2,23.0,30.09,West,281,0.0,0.0,84,0.00,,---,0.00,VWS V14.01,2013-03-12 04:10:00,
2013-03-11 23:15:00,27.0,23.1,30.10,West,281,0.0,0.0,85,0.00,,---,0.00,VWS V14.01,2013-03-12 04:15:00,
2013-03-11 23:20:00,26.9,23.0,30.10,West,281,0.0,0.0,85,0.00,,---,0.00,VWS V14.01,2013-03-12 04:20:00,
2013-03-11 23:25:00,26.8,22.9,30.11,West,281,0.0,0.0,85,0.00,,---,0.00,VWS V14.01,2013-03-12 04:25:00,
2013-03-11 23:30:00,26.8,23.2,30.11,West,281,0.0,0.0,86,0.00,,---,0.00,VWS V14.01,2013-03-12 04:30:00,
2013-03-11 23:35:00,26.7,23.1,30.11,West,281,0.0,0.0,86,0.00,,---,0.00,VWS V14.01,2013-03-12 04:35:00,
2013-03-11 23:40:00,26.7,23.1,30.12,West,281,0.0,0.0,86,0.00,,---,0.00,VWS V14.01,2013-03-12 04:40:00,
2013-03-11 23:45:00,26.7,23.4,30.13,West,281,0.0,0.0,87,0.00,,---,0.00,VWS V14.01,2013-03-12 04:45:00,
2013-03-11 23:50:00,26.9,23.6,30.13,West,281,0.0,0.0,87,0.00,,---,0.00,VWS V14.01,2013-03-12 04:50:00,
2013-03-11 23:56:00,27.0,23.6,30.13,West,281,0.0,0.0,87,0.00,,---,0.00,VWS V14.01,2013-03-12 04:56:00,